Regional Weather Roundup
Issued by NWS Green Bay, WI

Home | Current Version | Previous Version | Graphics & Text | Print | Product List | Glossary Off
Versions: 1 2 3 4 5 6 7 8 9 10 11 12 13 14 15 16 17 18 19 20 21 22 23 24 25 26 27 28 29 30 31 32 33 34 35 36 37 38 39 40 41 42 43 44 45 46 47 48 49 50

000
ASUS43 KGRB 260400
RWRGRB

NORTH-CENTRAL AND NORTHEAST WISCONSIN REGIONAL WEATHER ROUNDUP
NATIONAL WEATHER SERVICE GREEN BAY WI
1100 PM CDT TUE APR 25 2017

WIZ005-009-010>012-018-019-260500-
NORTH CENTRAL WISCONSIN

CITY           SKY/WX    TMP DP  RH WIND       PRES   REMARKS
IRONWOOD       LGT SNOW  34  33  96 N7        29.75F FOG
MANITOWISH WTR DRIZZLE   37  37 100 N12G17    29.67F
ARBOR VITAE    NOT AVBL
EAGLE RIVER    NOT AVBL
LAND O LAKES   LGT RAIN  40  39  94 N9        29.72R
RHINELANDER    CLOUDY    56  54  93 NE6       29.63F
PHILLIPS       CLOUDY    43  43 100 N12       29.63F
ANTIGO         NOT AVBL
TOMAHAWK       NOT AVBL
MERRILL        DRIZZLE   55  55 100 NE3       29.60F
$$

WIZ013-073-260500-
NORTHEAST WISCONSIN

CITY           SKY/WX    TMP DP  RH WIND       PRES   REMARKS
IRON MOUNTAIN  LGT RAIN  51  47  86 CALM      29.65F
MARINETTE      CLOUDY    49  44  83 E8        29.66S
$$

WIZ017-030-035>037-045-260500-
CENTRAL WISCONSIN

CITY           SKY/WX    TMP DP  RH WIND       PRES   REMARKS
MEDFORD        NOT AVBL
WAUSAU         CLOUDY    57  51  80 NE8       29.57F
MOSINEE        CLOUDY    55  52  88 NE9       29.58F
MARSHFIELD     CLOUDY    56  51  84 NE13      29.54F
WISC RAPIDS    CLOUDY    61  50  67 NE6       29.54F
STEVENS POINT  NOT AVBL
WAUPACA        CLOUDY    65  53  65 E10G16    29.56F
SHAWANO        CLOUDY    61  52  71 NE7       29.60F
CLINTONVILLE   DRIZZLE   61  50  67 E5        29.58F
WAUTOMA        CLOUDY    64  53  67 E7        29.53F
$$

WIZ038-039-048-051-260500-
FOX VALLEY

CITY           SKY/WX    TMP DP  RH WIND       PRES   REMARKS
NWS GREEN BAY  CLOUDY    65  54  67 SE13      29.59F
APPLETON       MOCLDY    61  48  63 SE8       29.57F
OSHKOSH        CLOUDY    62  52  69 SE10      29.56F
FOND DU LAC    CLOUDY    64  50  60 SE18      29.56F
$$

WIZ022-050-052-260500-
EAST CENTRAL WISCONSIN

CITY           SKY/WX    TMP DP  RH WIND       PRES   REMARKS
EPHRAIM        NOT AVBL
WASHINGTON ISL CLOUDY    45  40  85 NE6       29.66F
STURGEON BAY   CLOUDY    52  46  80 E10       29.64F
MANITOWOC      NOT AVBL
SHEBOYGAN      CLOUDY    53  49  86 CALM      29.60F
$$

LMZ563-521-522-541>543-260500-
LAKESHORE

STATION/POSITION TIME  TEMP    WIND        PRES    VSBY  WAVE
                       AIR SEA DIR/SP/G                  HT/PER
                 (UTC) (F)     (DEG/KT/KT) (MB)    (MI)  (FT/S)
SHEBOYGAN LKSHOR 0300   51      20/  4/  5 1002.6F
KEWAUNEE LKSHORE 0330   46      30/  8/ 10 1003.3F
NORTHPORT PIER   0340   42      90/  6/  7 1004.7F
N MID LAKE BUOY  0250   40 37   70/  8/ 10 1006.3R         1/ 3
CHAMBERS ISLAND  0340   42     360/  8/  9 1004.4S
MENOMINEE LKSHOR 0330   44      20/ 10/ 12 1003.6S
$$




USA.gov is the U.S. government's official web portal to all federal, state and local government web resources and services.